Simultaneous Nadir Overpasses (SNOs) Predictions

Prediction of SNOs between AQUA and NPP Satellite Orbit:

Table of predicted SNOs for the next 14.0 days since TLE Epoch: 1/5/2019
Index Date (AQUA) Time (AQUA) Lat,Lon (AQUA) SZA (AQUA ) Date (NPP) Time (NPP) Lat,Lon (NPP) SZA (NPP ) Distance(km) Time Diff (sec)
1 01/06/2019 14:05:07 -76.10, 28.11 60.69 01/06/2019 14:04:59 -76.10, 28.05 60.67 1.69 8
2 01/06/2019 14:54:11 77.16,-160.59 118.11 01/06/2019 14:55:19 77.16,-160.56 118.05 0.77 68
3 01/09/2019 05:32:24 75.38, -25.79 119.83 01/09/2019 05:31:23 75.38, -25.82 119.89 1.16 61
4 01/09/2019 06:21:23 -76.74, 146.12 61.69 01/09/2019 06:21:39 -76.75, 146.22 61.73 2.59 16
5 01/11/2019 21:48:47 75.69, 90.98 119.16 01/11/2019 21:48:11 75.68, 90.90 119.22 2.35 36
6 01/11/2019 22:37:48 -76.94, -97.27 62.26 01/11/2019 22:38:29 -76.95, -97.22 62.31 1.28 41
7 01/14/2019 14:05:01 76.43,-150.84 117.96 01/14/2019 14:04:49 76.44,-150.74 117.94 2.69 12
8 01/14/2019 14:54:13 -77.14, 19.35 62.88 01/14/2019 14:55:19 -77.14, 19.36 62.94 0.26 66
9 01/17/2019 05:32:25 -75.36, 154.17 61.30 01/17/2019 05:31:22 -75.36, 154.13 61.23 1.38 63




NCC Satellite Simultaneous Nadir Overpasses (SNOs) Prediction Service
